YAMAL 401

Last updated on Tue Sep 22 2026 00:03:13 GMT+0000 (Coordinated Universal Time)

1 40345U 14082A 26264.80635764 -.00000232 00000+0 00000+0 0 9996 2 40345 0.0170 213.1049 0000562 325.7308 202.0960 1.00270818 42885
UTC large
Height (km)
Speed (km/s)
/
Latitude / Longitude
Inclination (degrees)
Orbital Period (minutes)
Azimuth
Elevation
Range (km)
Doppler Factor

Next 0 passes for location: London (51.5072 / 0.1276)

No passes found over London.
YAMAL 401